Waarnemingen

Advertentie
Mijn weer
Lulea/Kallax, Zweden (2186): temperatuur & dauwpunt: 11.01.2021 04:00:00 - 17.01.2021 04:00:00 (CET)Lulea/Kallax, Zweden (2186): windsnelheid & windstoten: 11.01.2021 04:00:00 - 17.01.2021 04:00:00 (CET)Lulea/Kallax, Zweden (2186): windrichting: 11.01.2021 04:00:00 - 17.01.2021 04:00:00 (CET)Lulea/Kallax, Zweden (2186): luchtdruk: 11.01.2021 04:00:00 - 17.01.2021 04:00:00 (CET)Lulea/Kallax, Zweden (2186): zicht: 11.01.2021 04:00:00 - 17.01.2021 04:00:00 (CET)Lulea/Kallax, Zweden (2186): neerslag: 11.01.2021 04:00:00 - 17.01.2021 04:00:00 (CET)
Datum & Tijd tt [°C] td [°C] ff [km/u] ff [kn] fx [km/u] fx [kn] dd ppp [hPa] vv [km] rr [mm]
17.01.2021 04:00:00 -15,2 -16,5 5 3 7 4 NNW 1015,5 10 0,0
17.01.2021 03:00:00 -15,0 -16,4 2 1 14 8 - 1015,7 10 0,0
17.01.2021 02:00:00 -12,9 -14,1 9 5 14 8 NW 1016,1 10 0,0
17.01.2021 01:00:00 -13,7 -15,0 9 5 14 8 NNW 1016,6 10 0,0
17.01.2021 00:00:00 -12,6 -13,8 5 3 14 8 NNW 1017,0 10 0,0
16.01.2021 23:00:00 -12,6 -13,8 8 4 14 8 NNW 1017,6 10 0,0
16.01.2021 22:00:00 -11,8 -13,0 8 4 11 6 NW 1017,9 10 0,0
16.01.2021 21:00:00 -10,8 -11,7 5 3 11 6 NW 1018,0 10 0,0
16.01.2021 20:00:00 -10,6 -11,6 9 5 11 6 NW 1018,2 10 0,0
16.01.2021 19:00:00 -10,6 -11,5 8 4 11 6 NW 1018,5 10 0,0
16.01.2021 18:00:00 -10,2 -11,0 5 3 11 6 NNW 1018,8 10 0,0
16.01.2021 17:00:00 -9,7 -10,6 11 6 14 8 NW 1019,0 10 0,0
16.01.2021 16:00:00 -9,8 -10,9 13 7 14 8 NW 1019,2 10 0,0
16.01.2021 15:00:00 -8,1 -9,4 11 6 18 10 NNW 1019,4 10 0,0
16.01.2021 14:00:00 -8,3 -9,6 11 6 18 10 NW 1019,7 10 0,0
16.01.2021 13:00:00 -7,8 -9,2 11 6 18 10 NW 1020,0 10 0,0
16.01.2021 12:00:00 -8,0 -9,3 13 7 22 12 NNW 1020,4 10 0,0
16.01.2021 11:00:00 -7,7 -9,1 15 8 22 12 NNW 1020,6 10 0,0
16.01.2021 10:00:00 -7,8 -9,0 11 6 18 10 NNW 1020,8 10 0,0
16.01.2021 09:00:00 -7,0 -8,4 13 7 22 12 NNW 1020,9 10 0,0
16.01.2021 08:00:00 -7,0 -8,4 15 8 22 12 NNW 1020,9 10 0,0
16.01.2021 07:00:00 -6,6 -8,0 13 7 22 12 NNW 1020,7 10 0,0
16.01.2021 06:00:00 -6,2 -7,6 13 7 22 12 NNW 1020,6 10 0,0
16.01.2021 05:00:00 -5,5 -6,7 15 8 22 12 NNW 1020,8 10 0,0
16.01.2021 04:00:00 -5,0 -6,5 15 8 25 14 NNW 1020,8 10 0,0
16.01.2021 03:00:00 -5,2 -6,9 18 10 25 14 NNW 1020,5 10 0,0
16.01.2021 02:00:00 -5,5 -6,9 13 7 25 14 NNW 1020,6 10 0,0
16.01.2021 01:00:00 -6,6 -8,0 16 9 25 14 NNW 1020,6 10 0,0
16.01.2021 00:00:00 -6,0 -7,4 18 10 29 16 NNW 1020,6 10 0,0
15.01.2021 23:00:00 -4,7 -6,4 24 13 32 18 NNW 1020,5 10 0,0
15.01.2021 22:00:00 -5,3 -6,7 21 11 29 16 NNW 1020,2 10 0,0
15.01.2021 21:00:00 -4,7 -6,4 21 11 25 14 NNW 1019,9 10 0,0
15.01.2021 20:00:00 -4,7 -6,4 21 11 29 16 NNW 1019,8 10 0,0
15.01.2021 19:00:00 -4,3 -5,8 24 13 29 16 NNW 1019,7 10 0,0
15.01.2021 18:00:00 -4,1 -5,6 26 14 32 18 NNW 1019,6 10 0,0
15.01.2021 17:00:00 -5,5 -6,5 24 13 32 18 NNW 1019,5 10 0,0
15.01.2021 16:00:00 -5,5 -6,6 24 13 32 18 NNW 1019,6 10 0,0
15.01.2021 15:00:00 -5,9 -6,8 22 12 29 16 NNW 1019,6 10 0,0
15.01.2021 14:00:00 -5,8 -6,7 22 12 29 16 NNW 1019,8 10 0,0
15.01.2021 13:00:00 -4,9 -5,7 5 3 25 14 N 1019,7 10 0,0
15.01.2021 12:00:00 -12,4 -13,8 0 0 4 2 N 1020,3 10 0,0
15.01.2021 11:00:00 -13,6 -15,2 2 1 4 2 - 1020,7 10 0,0
15.01.2021 10:00:00 -15,0 -16,5 4 2 4 2 ZZO 1020,9 10 0,0
15.01.2021 09:00:00 -15,4 -17,1 2 1 4 2 W 1020,8 10 0,0
15.01.2021 08:00:00 -16,7 -18,4 2 1 4 2 - 1021,0 10 0,0
15.01.2021 07:00:00 -18,7 -20,6 0 0 4 2 N 1021,3 10 0,0
15.01.2021 06:00:00 -19,5 -21,5 2 1 4 2 - 1021,4 10 0,0
15.01.2021 05:00:00 -20,4 -22,4 0 0 4 2 N 1021,7 10 0,0
15.01.2021 04:00:00 -21,6 -23,7 0 0 4 2 N 1022,4 10 0,0
15.01.2021 03:00:00 -22,8 -25,0 0 0 4 2 N 1022,8 10 0,0
15.01.2021 02:00:00 -22,3 -24,5 2 1 7 4 WNW 1023,3 10 0,0
15.01.2021 01:00:00 -23,1 -25,4 4 2 4 2 NNW 1023,9 10 0,0
15.01.2021 00:00:00 -22,2 -24,4 0 0 4 2 N 1024,5 10 0,0
14.01.2021 23:00:00 -21,6 -23,7 2 1 7 4 - 1024,8 10 0,0
14.01.2021 22:00:00 -22,2 -24,4 2 1 7 4 NW 1025,1 10 0,0
14.01.2021 21:00:00 -22,5 -24,7 4 2 4 2 NNW 1025,6 10 0,0
14.01.2021 20:00:00 -22,8 -25,0 0 0 7 4 N 1025,9 10 0,0
14.01.2021 19:00:00 -22,7 -24,9 2 1 7 4 NNW 1026,4 10 0,0
14.01.2021 18:00:00 -22,3 -24,5 5 3 7 4 NNW 1026,7 4,4 0,0
14.01.2021 17:00:00 -23,0 -25,4 8 4 11 6 NNW 1026,8 7 0,0
14.01.2021 16:00:00 -23,2 -25,5 4 2 7 4 NNW 1027,3 10 0,0
14.01.2021 15:00:00 -24,0 -26,3 4 2 7 4 NNW 1027,6 10 0,0
14.01.2021 14:00:00 -25,8 -28,4 4 2 7 4 NNW 1027,7 10 0,0
14.01.2021 13:00:00 -26,4 -28,9 4 2 7 4 NW 1028,0 10 0,0
14.01.2021 12:00:00 -26,4 -28,9 5 3 11 6 NNW 1028,5 10 0,0
14.01.2021 11:00:00 -25,5 -28,1 4 2 11 6 NNW 1029,0 10 0,0
14.01.2021 10:00:00 -26,5 -29,0 8 4 11 6 NW 1029,3 10 0,0
14.01.2021 09:00:00 -27,5 -30,2 9 5 14 8 N 1029,3 10 0,0
14.01.2021 08:00:00 -27,7 -30,5 11 6 14 8 N 1029,3 10 0,0
14.01.2021 07:00:00 -28,6 -31,4 8 4 14 8 N 1029,3 10 0,0
14.01.2021 06:00:00 -29,1 -31,8 8 4 11 6 N 1029,3 10 0,0
14.01.2021 05:00:00 -29,1 -32,0 5 3 11 6 NNW 1029,7 10 0,0
14.01.2021 04:00:00 -29,0 -31,9 11 6 14 8 N 1030,2 10 0,0
14.01.2021 03:00:00 -28,5 -31,3 8 4 14 8 N 1030,2 10 0,0
14.01.2021 02:00:00 -28,3 -30,9 5 3 14 8 NNW 1030,2 10 0,0
14.01.2021 01:00:00 -27,7 -30,3 11 6 18 10 NNW 1030,4 50 0,0
14.01.2021 00:00:00 -27,1 -29,6 13 7 18 10 N 1030,5 10 0,0
13.01.2021 23:00:00 -27,4 -30,1 9 5 18 10 NNW 1030,2 10 0,0
13.01.2021 22:00:00 -25,5 -28,1 9 5 22 12 N 1030,3 10 0,0
13.01.2021 21:00:00 -25,2 -27,6 15 8 22 12 N 1030,2 10 0,0
13.01.2021 20:00:00 -25,0 -27,6 13 7 22 12 NNW 1029,9 10 0,0
13.01.2021 19:00:00 -26,2 -28,9 13 7 22 12 N 1029,6 10 0,0
13.01.2021 18:00:00 -23,8 -26,3 13 7 22 12 N 1029,5 10 0,0
13.01.2021 17:00:00 -22,9 -25,4 13 7 22 12 N 1029,4 10 0,0
13.01.2021 16:00:00 -21,7 -24,2 13 7 22 12 N 1029,3 10 0,0
13.01.2021 15:00:00 -20,5 -22,9 13 7 25 14 N 1028,7 7 0,0
13.01.2021 14:00:00 -20,1 -22,4 16 9 29 16 N 1028,4 6 0,0
13.01.2021 13:00:00 -19,8 -22,1 16 9 29 16 NNO 1027,8 7 0,0
13.01.2021 12:00:00 -19,9 -22,2 18 10 32 18 NNO 1027,6 7 0,0
13.01.2021 11:00:00 -19,8 -22,1 18 10 32 18 NNO 1027,4 7 0,0
13.01.2021 10:00:00 -19,5 -21,8 16 9 32 18 NNO 1027,0 9 0,0
13.01.2021 09:00:00 -19,1 -21,3 16 9 32 18 NNO 1026,4 8 0,0
13.01.2021 08:00:00 -18,7 -20,9 16 9 29 16 NNO 1025,7 10 0,0
13.01.2021 07:00:00 -18,5 -20,7 15 8 29 16 NNO 1024,9 10 0,0
13.01.2021 06:00:00 -18,4 -20,6 18 10 29 16 NNO 1024,0 10 0,0
13.01.2021 05:00:00 -18,2 -20,2 16 9 32 18 NNO 1023,5 9 0,0
13.01.2021 04:00:00 -18,0 -20,0 16 9 36 19 NO 1022,7 9 0,0
13.01.2021 03:00:00 -17,6 -19,5 18 10 36 19 NO 1022,0 8 0,0
13.01.2021 02:00:00 -17,4 -19,3 21 11 32 18 NO 1021,1 6 0,0
13.01.2021 01:00:00 -17,2 -19,1 22 12 40 21 ONO 1020,6 6 0,1
13.01.2021 00:00:00 -16,9 -18,7 18 10 40 21 NO 1019,6 6 0,0
12.01.2021 23:00:00 -16,6 -18,3 22 12 40 21 NO 1018,7 1,5 0,3
12.01.2021 22:00:00 -16,4 -18,1 18 10 43 23 NO 1017,8 1,1 0,5
12.01.2021 21:00:00 -15,8 -17,5 16 9 32 18 NO 1017,0 0,9 1,0
12.01.2021 20:00:00 -14,9 -16,4 15 8 25 14 NO 1015,8 0,5 2,0
12.01.2021 19:00:00 -14,1 -15,5 15 8 36 19 NO 1014,9 0,5 3,0
12.01.2021 18:00:00 -13,3 -14,7 18 10 36 19 ONO 1013,9 0,4 3,0
12.01.2021 17:00:00 -13,0 -14,4 21 11 36 19 ONO 1013,5 2,5 0,9
12.01.2021 16:00:00 -12,9 -14,3 21 11 50 27 ONO 1013,1 2,2 0,8
12.01.2021 15:00:00 -12,9 -14,3 21 11 47 25 ONO 1012,5 1,6 1,0
12.01.2021 14:00:00 -11,4 -12,7 22 12 40 21 ONO 1012,1 1,6 1,0
12.01.2021 13:00:00 -10,0 -11,2 26 14 43 23 O 1011,8 2,5 0,4
12.01.2021 12:00:00 -9,6 -10,8 22 12 43 23 ONO 1011,6 2,5 0,4
12.01.2021 11:00:00 -9,3 -10,5 21 11 40 21 O 1011,9 2,5 0,4
12.01.2021 10:00:00 -9,4 -10,7 18 10 40 21 O 1012,0 3,5 0,1
12.01.2021 09:00:00 -9,5 -10,8 22 12 40 21 O 1011,6 4,0 0,0
12.01.2021 08:00:00 -9,2 -10,5 22 12 50 27 O 1010,8 6 0,0
12.01.2021 07:00:00 -8,1 -9,3 26 14 54 29 O 1010,4 10 0,0
12.01.2021 06:00:00 -7,4 -8,6 26 14 47 25 O 1010,3 10 0,0
12.01.2021 05:00:00 -6,4 -7,6 24 13 43 23 O 1010,2 10 0,0
12.01.2021 04:00:00 -5,4 -6,6 22 12 40 21 O 1010,3 10 0,0
12.01.2021 03:00:00 -5,3 -6,3 24 13 40 21 O 1010,4 10 0,0
12.01.2021 02:00:00 -5,5 -6,5 22 12 40 21 O 1011,1 10 0,0
12.01.2021 01:00:00 -5,2 -6,2 21 11 36 19 O 1011,1 10 0,0
12.01.2021 00:00:00 -4,9 -5,9 21 11 36 19 O 1011,4 10 0,0
11.01.2021 23:00:00 -3,9 -5,0 16 9 36 19 OZO 1011,5 10 0,0
11.01.2021 22:00:00 -3,1 -4,1 26 14 36 19 OZO 1011,1 10 0,0
11.01.2021 21:00:00 -2,1 -3,1 21 11 32 18 ZO 1010,7 10 0,0
11.01.2021 20:00:00 -2,0 -2,8 21 11 32 18 ZO 1010,3 10 0,0
11.01.2021 19:00:00 -2,3 -2,7 15 8 32 18 OZO 1009,8 4,2 0,0
11.01.2021 18:00:00 -2,8 -3,5 13 7 25 14 O 1009,9 10 0,0
11.01.2021 17:00:00 -3,4 -4,1 11 6 22 12 O 1009,9 6 0,0
11.01.2021 16:00:00 -4,2 -5,0 13 7 25 14 O 1009,6 6 0,0
11.01.2021 15:00:00 -4,6 -5,3 16 9 29 16 O 1009,8 5 0,5
11.01.2021 14:00:00 -4,2 -4,9 21 11 32 18 OZO 1009,8 3,5 0,2
11.01.2021 13:00:00 -4,1 -4,9 21 11 32 18 OZO 1009,8 4,0 0,2
11.01.2021 12:00:00 -3,9 -4,9 22 12 32 18 ZO 1009,5 6 0,0
11.01.2021 11:00:00 -3,7 -5,1 22 12 32 18 ZO 1009,6 10 0,0
11.01.2021 10:00:00 -3,6 -4,4 18 10 29 16 ZO 1009,4 3,5 0,1
11.01.2021 09:00:00 -3,5 -4,3 18 10 29 16 ZO 1009,3 10 0,0
11.01.2021 08:00:00 -3,3 -4,3 18 10 29 16 ZO 1009,2 5 0,0
11.01.2021 07:00:00 -3,2 -3,9 18 10 29 16 OZO 1008,9 5 0,2
11.01.2021 06:00:00 -3,1 -3,6 18 10 29 16 OZO 1009,0 6 0,0
11.01.2021 05:00:00 -2,8 -3,3 21 11 29 16 ZO 1009,1 10 0,1
11.01.2021 04:00:00 -2,6 -3,0 22 12 36 19 ZO 1009,1 6 0,3

tt = temperatuur
td = dauwpunt
ff = windsnelheid
fx = windstoten
dd = windrichting
ppp = luchtdruk
vv = zicht
rr = neerslag

Weerstations in de omgeving